STARLINK-5697 (55589 NORAD) Tracking and Keplerian Element Data

This shows tracking and keplerian element data for the satellite.

Feedback or suggestion? Click here.




ElementValue
Catalog55589
NameSTARLINK-5697
Epoch Orbit130
Epoch Day84.91667824
Epoch Year2023
RAAN111.8867
Inclination42.9966
Eccentricity0.0001453
Argument of Perigee259.8101
Mean Anonmoly64.0616
Mean Motion15.08165171
Decay Rate-0.01156837
L11 55589U 23020W 23084.91667824 -.01156837 00000+0 -80053-1 0 9998
L22 55589 42.9966 111.8867 0001453 259.8101 64.0616 15.08165171 1303



Live tracking and technical data element details for STARLINK-5697 (NORAD 55589). STARLINK-5697 can be tracked NOW for your location showing map with azimuth and elevation plus other details from your city location.







IsCatalogInMostPopularTable: catalog: 55589, numindb: -1

Insert: records affected: 1


GetName: 55589 STARLINK-5697

Hit Count: inserted at: Tue, 28 Mar 2023 01:24:31 GMT